Johnstown, PA

2:12 AM EDT on August 22, 2017 (GMT -0400)
Johnstown-Cambria County

Weather History for KJST - August, 2013

Change the Weather History Date:

Sunday, August 25, 2013

  Actual Average Record
Temperature  
Mean Temperature 66 °F 67 °F  
Max Temperature 75 °F 75 °F 94 °F (1936)
Min Temperature 56 °F 59 °F 40 °F (1944)
Degree Days  
Heating Degree Days 0 1  
Month to date heating degree days 48 21  
Since 1 June heating degree days 134 108  
Since 1 July heating degree days 71 34  
Cooling Degree Days 1 3  
Month to date cooling degree days 40 102  
Year to date cooling degree days 311 345  
Since 1 June cooling degree days 270 327  
Growing Degree Days 15 (Base 50)    
Moisture  
Dew Point 53 °F    
Average Humidity 63    
Maximum Humidity 80    
Minimum Humidity 46    
Precipitation  
Precipitation 0.00 in 0.12 in 1.94 in (1982)
Month to date precipitation 4.90 3.14  
Year to date precipitation 24.29 23.63  
Sea Level Pressure  
Sea Level Pressure 30.35 in    
Wind  
Wind Speed 6 mph (SW)    
Max Wind Speed 12 mph    
Max Gust Speed 15 mph    
Visibility 10 miles    
Events      
T = Trace of Precipitation, MM = Missing Value Source: NWS Daily Summary

Daily Weather History Graph

Daily Weather History Graph

Search for Another Location

Airport or City:

Trip Planner

Search our weather history database for the weather conditions in past years. The results will help you decide how hot, cold, wet, or windy it might be!

Date:

Astronomy

Aug. 25, 2013 Rise Set
Actual Time 6:36 AM EDT 7:57 PM EDT
Civil Twilight 6:07 AM EDT 8:25 PM EDT
Nautical Twilight 5:33 AM EDT 8:59 PM EDT
Astronomical Twilight 4:57 AM EDT 9:35 PM EDT
Moon 10:26 PM EDT (8/25) 11:37 AM EDT (8/25)
Length of Visible Light 14h 18m
Length of Day
13h 21m
Waning Gibbous, 76% of the Moon is Illuminated
Aug 25
Waning Gibbous
Aug 28
Last Quarter
Sep 5
New
Sep 12
First Quarter
Sep 19
Full

Hourly Weather History & Observations

Time (EDT) Temp. Dew Point Humidity Pressure Visibility Wind Dir Wind Speed Gust Speed Precip Events Conditions
12:54 AM 60.1 °F 52.0 °F 75% 30.35 in 10.0 mi SSE 10.4 mph - N/A   Clear
1:54 AM 59.0 °F 51.1 °F 75% 30.34 in 10.0 mi SSE 9.2 mph - N/A   Clear
2:54 AM 59.0 °F 50.0 °F 72% 30.35 in 10.0 mi South 8.1 mph - N/A   Clear
3:54 AM 57.0 °F 50.0 °F 77% 30.35 in 10.0 mi SSW 4.6 mph - N/A   Clear
4:54 AM 57.0 °F 51.1 °F 81% 30.37 in 10.0 mi SSW 3.5 mph - N/A   Clear
5:54 AM 57.0 °F 51.1 °F 81% 30.39 in 10.0 mi South 3.5 mph - N/A   Clear
6:54 AM 57.0 °F 51.1 °F 81% 30.40 in 10.0 mi South 5.8 mph - N/A   Clear
7:54 AM 59.0 °F 53.1 °F 81% 30.42 in 10.0 mi South 3.5 mph - N/A   Clear
8:54 AM 60.1 °F 54.0 °F 80% 30.42 in 10.0 mi SW 5.8 mph - N/A   Mostly Cloudy
9:54 AM 64.9 °F 54.0 °F 68% 30.41 in 10.0 mi South 8.1 mph - N/A   Clear
10:54 AM 68.0 °F 55.0 °F 63% 30.41 in 10.0 mi WSW 8.1 mph - N/A   Clear
11:54 AM 70.0 °F 57.0 °F 63% 30.40 in 10.0 mi WSW 9.2 mph - N/A   Clear
12:54 PM 72.0 °F 55.0 °F 55% 30.38 in 10.0 mi WSW 6.9 mph - N/A   Scattered Clouds
1:54 PM 72.0 °F 52.0 °F 49% 30.37 in 10.0 mi WSW 6.9 mph - N/A   Scattered Clouds
2:54 PM 73.0 °F 53.1 °F 49% 30.36 in 10.0 mi WNW 9.2 mph - N/A   Mostly Cloudy
3:54 PM 73.0 °F 53.1 °F 49% 30.34 in 10.0 mi Variable 3.5 mph - N/A   Scattered Clouds
4:54 PM 73.9 °F 52.0 °F 46% 30.32 in 10.0 mi West 10.4 mph - N/A   Clear
5:54 PM 73.0 °F 53.1 °F 49% 30.32 in 10.0 mi West 8.1 mph - N/A   Scattered Clouds
6:54 PM 71.1 °F 53.1 °F 53% 30.30 in 10.0 mi WSW 4.6 mph - N/A   Clear
7:54 PM 69.1 °F 55.0 °F 61% 30.30 in 10.0 mi West 3.5 mph - N/A   Clear
8:54 PM 66.0 °F 55.0 °F 68% 30.30 in 10.0 mi SW 3.5 mph - N/A   Clear
9:54 PM 64.0 °F 55.0 °F 73% 30.30 in 10.0 mi SW 3.5 mph - N/A   Clear
10:54 PM 63.0 °F 55.9 °F 78% 30.31 in 10.0 mi WSW 3.5 mph - N/A   Clear
11:54 PM 63.0 °F 55.9 °F 78% 30.30 in 10.0 mi WSW 5.8 mph - N/A   Clear